Miscellaneous Local Product
Issued by NWS Hastings, NE

Home | Current Version | Previous Version | Graphics & Text | Print | Product List | Glossary On
Versions: 1 2 3 4 5 6 7 8 9 10 11 12 13 14 15 16 17 18 19 20 21 22 23 24 25 26 27 28 29 30 31 32 33 34 35 36 37 38 39 40 41 42 43 44 45 46 47 48 49 50
000
AXUS43 KGID 271602
MISGRI

GID CWA HOURLY WEATHER ROUNDUP
NATIONAL WEATHER SERVICE HASTINGS NE
1100 AM CDT SUN JUL 27 2014

NOTE: "FAIR" INDICATES FEW OR NO CLOUDS BELOW 12,000 FEET WITH NO
SIGNIFICANT WEATHER AND/OR OBSTRUCTIONS TO VISIBILITY.

...SOUTH CENTRAL NEBRASKA...

CITY           SKY/WX    TMP DP  RH WIND       PRES   REMARKS
GRAND ISLAND   SUNNY     80  53  39 NW14      30.20R
HASTINGS       SUNNY     78  51  38 N10       30.21R
KEARNEY        SUNNY     79  52  38 NW10      30.24R
ORD            SUNNY     75  53  46 NW14      30.21R
YORK           SUNNY     75  59  57 NW13      30.17R
AURORA         SUNNY     76  57  51 NW9       30.19R
LEXINGTON      SUNNY     78  51  38 N7        30.26R
HOLDREGE       SUNNY     76  56  49 N8        30.24S
HEBRON         PTSUNNY   80  50  34 N9        30.17S

...NEBRASKA PANHANDLE...

CITY           SKY/WX    TMP DP  RH WIND       PRES   REMARKS
CHADRON        SUNNY     73  47  39 CALM      30.33S
ALLIANCE       MOSUNNY   75  44  33 VRB7      30.34S
SCOTTSBLUFF    PTSUNNY   71  49  45 S7        30.36R
SIDNEY         MOSUNNY   76  46  34 E12G17    30.37R

...WESTERN AND NORTH CENTRAL NEBRASKA...

CITY           SKY/WX    TMP DP  RH WIND       PRES   REMARKS
VALENTINE      SUNNY     76  51  41 N17       30.26R
AINSWORTH      SUNNY     73  53  50 N13       30.24S
ONEILL         SUNNY     75  50  41 NW20G28   30.20R
BROKEN BOW     SUNNY     77  52  41 N13G23    30.24S
IMPERIAL       LGT RAIN  78  49  35 NE16      30.30R
NORTH PLATTE   SUNNY     75  54  47 W6        30.28S
MCCOOK         MOSUNNY   80  52  37 NE14      30.27R

...EASTERN NEBRASKA...

CITY           SKY/WX    TMP DP  RH WIND       PRES   REMARKS
NORFOLK        SUNNY     75  57  53 NW20G26   30.15R
SO SIOUX CITY  MOSUNNY   75  59  57 NW14G21   30.07R
COLUMBUS       SUNNY     55  55 100 NW17G23   30.15S
ALBION         SUNNY     73  54  51 NW14      30.18R
OMAHA EPPLEY   MOSUNNY   79  55  43 NW18      30.08R
OFFUTT AFB     SUNNY     79  58  47 NW14G24   30.08R
MILLARD        SUNNY     78  58  49 NW16G24   30.09S
LINCOLN        SUNNY     81  56  42 NW12      30.14R
NEBRASKA CITY  SUNNY     77  57  49 NW12      30.10S
BEATRICE       SUNNY     80  57  45 NW9       30.14R
FALLS CITY     NOT AVBL

...NORTHERN KANSAS...

CITY           SKY/WX    TMP DP  RH WIND       PRES   REMARKS
GOODLAND       MOSUNNY   76  60  57 NE14      30.31R
HILL CITY      PTSUNNY   79  54  41 NE14G22   30.23R
NORTON         PTSUNNY   81  45  28 NE9       30.24R
PHILLIPSBURG   SUNNY     81  52  36 N6        30.22S
SMITH CENTER   SUNNY     81  52  36 N12G17    30.20S
HAYS           PTSUNNY   79  64  61 NE15G22   30.20R
RUSSELL        CLOUDY    81  63  54 N20       30.18R
CONCORDIA      CLOUDY    82  57  42 N8        30.16R
SALINA         CLOUDY    86  65  49 N16       30.14R
TOPEKA         PTSUNNY   84  68  58 N12       30.08S



USA.gov is the U.S. government's official web portal to all federal, state and local government web resources and services.